Regional Weather Roundup
Issued by NWS Upton, NY

Current Version | Previous Version | Graphics & Text | Print | Product List | Glossary Off
Versions: 1 2 3 4 5 6 7 8 9 10 11 12 13 14 15 16 17 18 19 20 21 22 23 24 25 26 27 28 29 30 31 32 33 34 35 36 37 38 39 40 41 42 43 44 45 46 47 48 49 50
000 ASUS41 KOKX 281005 RWROKX REGIONAL WEATHER ROUNDUP NATIONAL WEATHER SERVICE NEW YORK NY 500 AM EST WED JAN 28 2015 NOTE: "FAIR" INDICATES FEW OR NO CLOUDS BELOW 12,000 FEET WITH NO SIGNIFICANT WEATHER AND/OR OBSTRUCTIONS TO VISIBILITY. NYZ071-072-176-178-NJZ106-104-281100- NEW YORK CITY METRO AREA CITY SKY/WX TMP DP RH WIND PRES REMARKS CENTRAL PARK CLEAR 17 -2 43 NW12G18 29.94R WCI 4 LAGUARDIA APRT CLOUDY 18 3 52 NW18 29.92S WCI 2 KENNEDY INTL PTCLDY 17 0 47 NW15 29.93R WCI 2 NEWARK/LIBERTY PTCLDY 16 -2 45 NW13 29.94R WCI 2 BRNX BOT. GARD N/A N/A N/A N/A W6 29.94S TETERBORO CLEAR 16 -3 43 NW15 29.93R WCI 1 $$ NYZ177-179-078>081-281100- LONG ISLAND NEW YORK CITY SKY/WX TMP DP RH WIND PRES REMARKS FARMINGDALE MOCLDY 17 2 51 NW10 29.90R WCI 5 ISLIP CLOUDY 17 5 59 NW26G37 29.87R WCI -2 SHIRLEY FLURRIES 16 7 67 NW16G26 29.90R WCI 1 WESTHAMPTON CLOUDY 17 8 67 NW10 29.89R WCI 5 MONTAUK POINT N/A 18 9 68 NW16G26 29.84R WCI 3 $$ NYZ052-065-067-281100- HUDSON VALLEY CITY SKY/WX TMP DP RH WIND PRES REMARKS WHITE PLAINS PTCLDY 14 1 56 NW13 29.87R WCI 0 NEWBURGH CLEAR 12 1 62 NW12 29.90R WCI -2 MONTGOMERY CLEAR 16 -2 45 NW16G23 29.90R WCI 1 POUGHKEEPSIE MOCLDY 4 0 83 CALM 29.93R ALBANY CLOUDY 13 0 56 N8 29.96R WCI 2 $$ NJZ001-105-106-008-010-013-015-019>022-104-281100- NEW JERSEY CITY SKY/WX TMP DP RH WIND PRES REMARKS NEWARK/LIBERTY PTCLDY 16 -2 45 NW13 29.94R WCI 2 TETERBORO CLEAR 16 -3 43 NW15 29.93R WCI 1 CALDWELL CLEAR 15 -5 40 NW6 29.95R WCI 6 MORRISTOWN CLEAR 18 -4 38 NW7 29.95R WCI 8 SOMERVILLE CLEAR 17 -1 45 NW7 29.95R WCI 8 SUSSEX CLEAR 14 -6 40 N12G20 29.92R WCI 0 ANDOVER N/A 13 -5 44 N5 29.94R WCI 5 TRENTON CLEAR 17 0 47 NW7 29.97R WCI 8 MILLVILLE CLEAR 20 6 55 NW10 30.00R WCI 9 ATLANTIC CITY CLEAR 18 6 59 NW13 29.97R WCI 5 WRIGHTSTOWN CLEAR 16 1 51 NW12 29.95R WCI 2 TOMS RIVER CLEAR 16 3 57 NW9 29.96R WCI 4 BELMAR CLEAR 16 -2 45 NW10 29.93R WCI 3 $$ PAZ047>061-062-071-281100- EASTERN PENNSYLVANIA CITY SKY/WX TMP DP RH WIND PRES REMARKS PHILADELPHIA PTCLDY 20 0 41 NW10 30.02R WCI 9 ALLENTOWN CLEAR 17 -3 41 NW7 29.99R WCI 8 SCRANTON CLEAR 11 -1 58 VRB6G20 30.01R WCI 1 $$ CTZ002-004>006-009-010-012-RIZ004-006-007-MAZ004-011-015-281100- SOUTHERN NEW ENGLAND IN CT CITY SKY/WX TMP DP RH WIND PRES REMARKS BRADLEY INTL PTCLDY 14 0 53 NW10 29.86R WCI 1 HARTFORD FLURRIES 14 2 58 NW9 29.89R WCI 2 DANBURY MOCLDY 14 -2 49 NW8 29.90R WCI 3 WTRBRY/OXFORD MOCLDY 12 -2 52 NW8 29.84R WCI 1 BRIDGEPORT PTCLDY 16 4 59 NW14 29.90R WCI 2 MERIDEN PTCLDY 15 2 56 NW7 29.88R WCI 5 NEW HAVEN MOCLDY 17 5 59 NW13G24 29.88R WCI 4 CHESTER FAIR 14 5 67 N10G16 29.84R WCI 1 GROTON PTCLDY 13 4 67 NW15G23 29.84R WCI -3 WILLIMANTIC CLOUDY 14 0 53 NW12 29.84R WCI 0 IN RI CITY SKY/WX TMP DP RH WIND PRES REMARKS PROVIDENCE PTCLDY 13 2 61 NW10 29.81R WCI 0 BLOCK ISLAND PTCLDY 16 5 62 NW15G21 29.79R WCI 1 WESTERLY CLEAR 13 3 64 NW8G20 29.83R WCI 2 IN MA CITY SKY/WX TMP DP RH WIND PRES REMARKS BOSTON LGT SNOW 13 6 74 NW14G25 29.79R WCI -2 WORCESTER CLEAR 7 0 73 NW21G30 29.72R WCI -13 WESTFIELD PTCLDY 13 0 56 NW9 29.86R WCI 1 PROVINCETOWN CLOUDY 21 16 79 NW22G30 29.72R WCI 5 NANTUCKET CLOUDY 19 13 77 NW17 29.74R WCI 4 $$ ANZ330-335-338-340-345-350-353-355-281100- COASTAL MARINE OBSERVATIONS STATION/POSITION TIME SKY/WX TEMP WIND PRES VSBY WAVE AIR SEA DIR/SP/G HT/PER (UTC) (F) (DEG/KT/KT) (MB) (MI) (FT/S) NY HARB ENTRANCE 1000 21 40 310/ 23/ 25 1012.4 4/14 4S FIRE IS 0900 38 N/A 4/12 20S FIRE ISLAND 0900 43 1011.4 6/ 5 23SW MTP 1000 N/A 6/14 HUDSON CANYON NOT AVBL EXECUTION ROCKS 1000 18 34 300/ 14/ 19 N/A WESTERN LI SOUND 1000 19 310/ 14/ 16 N/A 1/ 2 CENTRAL LI SOUND 0900 19 35 310/ 19/ 27 N/A 3/ 4 EASTERN LI SOUND NOT AVBL ROBBINS REEF 1000 17 330/ 12/ 15 1012.6 $$ >>>>>>>>>>>>>>>>>>>>>>>>>>>> KEY <<<<<<<<<<<<<<<<<<<<<<<<<<< > < > SKY/WX - SKY CONDITION/PRESENT WEATHER < > TMP - TEMPERATURE IN FAHRENHEIT < > DP - DEWPOINT IN FAHRENHEIT < > RH - RELATIVE HUMIDITY IN PERCENT < > WIND - DIRECTION AND SPEED IN MPH < > PRES - MEAN SEA LEVEL PRESSURE IN INCHES OF HG < > WCI - WIND CHILL INDEX < > VSB - VISIBILITY IN MILES < > HX - HEAT INDEX < > TC - TEMPERATURE IN CELSIUS < > VRB - VARIABLE WIND DIRECTION < > < >>>>>>>>>>>>>>>>>>>>>>>>>>>> KEY <<<<<<<<<<<<<<<<<<<<<<<<<<<

USA.gov is the U.S. government's official web portal to all federal, state and local government web resources and services.